CDT,Max TemperatureF,Mean TemperatureF,Min TemperatureF,Max Dew PointF,MeanDew PointF,Min DewpointF,Max Humidity, Mean Humidity, Min Humidity, Max Sea Level PressureIn, Mean Sea Level PressureIn, Min Sea Level PressureIn, Max VisibilityMiles, Mean VisibilityMiles, Min VisibilityMiles, Max Wind SpeedMPH, Mean Wind SpeedMPH, Max Gust SpeedMPH,PrecipitationIn, CloudCover, Events, WindDirDegrees
2013-8-1,83,73,63,68,64,60,100,74,47,30.04,30.01,29.98,10,8,4,16,6,20,0.00,1,,299
2013-8-2,77,70,62,70,66,62,100,87,74,29.99,29.96,29.93,10,10,9,13,7,17,T,3,,200
2013-8-3,83,73,62,70,67,60,100,77,54,30.11,30.00,29.94,10,9,5,14,6,17,0.00,4,,347
2013-8-4,78,67,55,63,55,-1,100,74,47,30.18,30.14,30.11,10,10,10,9,2,13,0.00,0,,49
2013-8-5,78,67,56,66,61,57,100,77,54,30.10,30.01,29.91,10,10,9,14,6,18,0.00,5,,179
2013-8-6,80,74,67,73,69,64,100,90,79,29.93,29.90,29.87,10,7,2,9,4,13,0.00,6,,178
2013-8-7,83,76,69,75,72,69,100,87,74,29.93,29.88,29.84,10,7,0,12,5,17,0.04,6,Fog-Rain-Thunderstorm,194
2013-8-8,81,75,69,74,72,70,100,90,79,29.96,29.92,29.88,10,8,4,13,5,15,0.00,7,,356
2013-8-9,82,72,61,72,65,60,100,79,58,30.05,29.99,29.93,10,10,9,10,4,16,T,1,,10
2013-8-10,84,75,66,69,65,49,100,74,47,30.12,30.08,30.06,10,10,10,15,5,18,T,2,,321
2013-8-11,82,70,57,68,62,57,100,77,54,30.15,30.10,30.06,10,10,10,10,3,14,0.00,0,,324
2013-8-12,81,72,63,72,67,62,100,84,67,30.08,29.98,29.90,10,9,1,16,3,18,0.30,2,Rain-Thunderstorm,224
2013-8-13,76,66,55,67,62,52,100,75,49,30.14,30.02,29.89,10,8,2,18,9,22,0.00,4,,8
2013-8-14,71,61,50,55,49,-1,100,74,47,30.21,30.17,30.14,10,10,10,15,5,18,0.00,2,,43
2013-8-15,72,61,50,59,54,49,100,77,53,30.19,30.15,30.11,10,10,10,12,3,,0.00,0,,51
2013-8-16,79,68,57,58,56,55,93,74,50,30.17,30.14,30.11,10,10,10,13,4,18,0.00,0,,48
2013-8-17,59,57,55,56,55,54,100,94,87,30.21,30.16,30.14,10,10,10,10,4,,0.00,1,,39
2013-8-18,,,,,,,,,,30.18,30.14,30.10,10,9,5,7,2,,0.00,1,,51
2013-8-19,,,,,,,,,,30.15,30.11,30.06,10,8,2,5,1,,0.00,0,,198
2013-8-20,84,77,68,70,68,66,100,78,55,30.15,30.10,30.07,10,8,5,5,2,,0.00,0,,173
2013-8-21,87,76,65,70,68,66,100,78,55,30.13,30.09,30.04,10,9,4,10,5,15,0.00,0,,197
2013-8-22,88,79,69,73,69,67,97,76,55,30.09,30.06,30.03,10,10,9,23,6,30,T,2,Rain-Thunderstorm,243
2013-8-23,84,74,64,68,66,64,100,78,55,30.13,30.10,30.07,10,7,0,10,4,16,0.00,1,Fog,34
2013-8-24,86,74,62,69,58,-1,100,73,45,30.25,30.20,30.13,10,9,6,9,3,13,0.00,0,,137
2013-8-25,87,75,62,68,60,-1,100,71,42,30.32,30.24,30.19,10,10,9,10,5,13,0.00,0,,168
2013-8-26,89,79,68,75,70,63,100,76,52,30.22,30.15,30.06,10,8,2,9,6,14,0.00,0,,212
2013-8-27,90,82,73,73,72,68,93,72,50,30.06,30.02,29.96,10,9,7,13,7,17,0.00,0,,233
2013-8-28,93,83,73,74,70,68,94,70,46,30.01,29.97,29.94,10,9,2,17,8,23,0.00,0,,256
2013-8-29,87,79,70,74,72,70,100,81,61,30.06,30.02,29.97,10,5,0,9,5,13,0.00,5,Fog,42
2013-8-30,95,79,63,77,71,66,100,75,49,29.97,29.92,29.82,10,6,1,20,4,28,0.00,1,,210
2013-8-31,95,84,72,76,72,65,93,70,46,29.84,29.78,29.70,10,10,10,22,7,30,0.03,1,,204